Location: Bílinka
(49.3579°N, 14.3767°E)
Time: 01:43:08
(UTC+00:00)

Cosmos 2228 - Pass Details

Date: 28 January 2023
Orbit: 585 x 612 km, 82.5° (Epoch: 31 March)

Event Time Altitude Azimuth Distance (km) Brightness Sun altitude
Rises 17:18:45 0° 353° (N) 2,835 6.4 -14.2°
Reaches altitude 10° 17:21:01 10° 359° (N) 1,926 5.5 -14.5°
Maximum altitude 17:25:11 53° 77° (ENE) 730 3.0 -15.2°
Drops below altitude 10° 17:29:17 10° 154° (SSE) 1,905 5.4 -15.9°
Sets 17:31:31 0° 159° (SSE) 2,800 6.3 -16.2°
